TimeEDT,TemperatureF,Dew PointF,Humidity,Sea Level PressureIn,VisibilityMPH,Wind Direction,Wind SpeedMPH,Gust SpeedMPH,PrecipitationIn,Events,Conditions,WindDirDegrees,DateUTC
12:54 AM,72.0,69.1,91,30.07,9.0,Calm,Calm,-,N/A,,Mostly Cloudy,0,2013-07-13 04:54:00
1:54 AM,72.0,69.1,91,30.06,9.0,NW,4.6,-,N/A,,Mostly Cloudy,320,2013-07-13 05:54:00
2:54 AM,71.1,68.0,90,30.06,7.0,Calm,Calm,-,N/A,,Scattered Clouds,0,2013-07-13 06:54:00
3:39 AM,71.6,68.0,88,30.06,8.0,Calm,Calm,-,N/A,,Overcast,0,2013-07-13 07:39:00
3:54 AM,70.0,68.0,93,30.07,8.0,Calm,Calm,-,N/A,,Overcast,0,2013-07-13 07:54:00
4:16 AM,69.8,66.2,88,30.07,7.0,Calm,Calm,-,N/A,,Scattered Clouds,0,2013-07-13 08:16:00
4:54 AM,71.1,68.0,90,30.07,7.0,NNE,4.6,-,0.02,,Overcast,20,2013-07-13 08:54:00
5:54 AM,71.1,68.0,90,30.09,8.0,Calm,Calm,-,0.02,,Overcast,0,2013-07-13 09:54:00
6:54 AM,71.1,68.0,90,30.12,7.0,North,4.6,-,N/A,,Overcast,10,2013-07-13 10:54:00
7:54 AM,72.0,69.1,91,30.14,8.0,NNE,4.6,-,N/A,,Overcast,30,2013-07-13 11:54:00
8:54 AM,75.0,70.0,84,30.16,10.0,North,3.5,-,N/A,,Overcast,10,2013-07-13 12:54:00
9:54 AM,75.9,70.0,82,30.17,10.0,Variable,3.5,-,N/A,,Overcast,0,2013-07-13 13:54:00
10:12 AM,75.2,69.8,83,30.16,10.0,Variable,5.8,-,N/A,,Overcast,0,2013-07-13 14:12:00
10:45 AM,77.0,71.6,83,30.17,10.0,East,5.8,-,N/A,,Overcast,80,2013-07-13 14:45:00
10:54 AM,77.0,71.1,82,30.19,10.0,ENE,3.5,-,N/A,,Overcast,70,2013-07-13 14:54:00
11:54 AM,80.1,71.1,74,30.19,10.0,Calm,Calm,-,N/A,,Overcast,0,2013-07-13 15:54:00
12:54 PM,81.0,72.0,74,30.19,10.0,East,3.5,-,N/A,,Overcast,80,2013-07-13 16:54:00
1:54 PM,82.9,73.0,72,30.18,10.0,ESE,4.6,-,N/A,,Overcast,120,2013-07-13 17:54:00
2:54 PM,79.0,75.0,88,30.19,5.0,ESE,4.6,-,0.04,Rain,Light Rain,120,2013-07-13 18:54:00
3:36 PM,84.2,73.4,70,30.16,10.0,South,8.1,-,0.00,Thunderstorm,Thunderstorm,170,2013-07-13 19:36:00
3:54 PM,84.0,73.9,72,30.17,10.0,SSE,6.9,-,0.00,Thunderstorm,Thunderstorm,150,2013-07-13 19:54:00
4:07 PM,82.4,73.4,74,30.18,1.5,SSE,17.3,25.3,0.00,Rain-Thunderstorm,Heavy Thunderstorms and Rain,150,2013-07-13 20:07:00
4:14 PM,78.8,73.4,83,30.18,6.0,South,11.5,25.3,0.06,Rain-Thunderstorm,Light Thunderstorms and Rain,170,2013-07-13 20:14:00
4:35 PM,78.8,73.4,83,30.17,10.0,SSE,3.5,-,0.06,,Scattered Clouds,160,2013-07-13 20:35:00
4:54 PM,80.1,75.0,85,30.19,10.0,Calm,Calm,-,0.06,,Scattered Clouds,0,2013-07-13 20:54:00
5:54 PM,82.0,73.9,76,30.19,10.0,SSE,4.6,-,N/A,,Scattered Clouds,160,2013-07-13 21:54:00
6:54 PM,82.9,73.9,74,30.19,9.0,East,3.5,-,N/A,,Scattered Clouds,90,2013-07-13 22:54:00
7:54 PM,81.0,75.9,85,30.19,9.0,East,3.5,-,N/A,,Scattered Clouds,90,2013-07-13 23:54:00
8:54 PM,79.0,75.0,88,30.22,9.0,ENE,3.5,-,N/A,,Scattered Clouds,70,2013-07-14 00:54:00
9:54 PM,78.1,75.0,90,30.24,10.0,Calm,Calm,-,N/A,,Scattered Clouds,0,2013-07-14 01:54:00
10:54 PM,78.1,73.0,84,30.25,10.0,SSE,6.9,-,N/A,,Scattered Clouds,150,2013-07-14 02:54:00
11:54 PM,75.9,73.0,91,30.27,10.0,Calm,Calm,-,N/A,,Partly Cloudy,0,2013-07-14 03:54:00